This is the latest recevied weather packets stored in our database for station/object W1SCW. If no packets are shown the sender has not sent any weather packets the latest 10 day(s).
| Time | Temp. | Humidity | Pressure | Rain* | Wind** | Luminosity | Snow |
|---|---|---|---|---|---|---|---|
| 1776949017 | 22.78° C | 93% | 1012 hPa | 0 mm | - | 103 W/m² | - |
| 1776948713 | 22.22° C | 94% | 1011.7 hPa | 0 mm | - | 93 W/m² | - |
| 1776948410 | 22.22° C | 95% | 1011.6 hPa | 0 mm | - | 81 W/m² | - |
| 1776948104 | 21.67° C | 96% | 1011.8 hPa | 0 mm | - | 70 W/m² | - |
| 1776947800 | 21.67° C | 97% | 1011.4 hPa | 0 mm | - | 58 W/m² | - |
| 1776947496 | 21.67° C | 97% | 1011.3 hPa | 0 mm | - | 52 W/m² | - |
| 1776947193 | 21.11° C | 98% | 1011.4 hPa | 0 mm | - | 44 W/m² | - |
| 1776946889 | 21.11° C | 98% | 1011.3 hPa | 0 mm | - | 37 W/m² | - |
| 1776946586 | 21.11° C | 99% | 1011.2 hPa | 0 mm | - | 27 W/m² | - |
| 1776946283 | 21.11° C | 99% | 1011.1 hPa | 0 mm | - | 22 W/m² | - |
| 1776945981 | 21.11° C | 99% | 1011.1 hPa | 0 mm | - | 15 W/m² | - |
| 1776945676 | 21.11° C | 99% | 1011.1 hPa | 0 mm | - | 12 W/m² | - |
| 1776945372 | 21.11° C | 99% | 1011.2 hPa | 0 mm | - | 8 W/m² | - |
| 1776945068 | 21.11° C | 99% | 1011.2 hPa | 0 mm | - | 4 W/m² | - |
| 1776944763 | 21.11° C | 99% | 1011.2 hPa | 0 mm | - | 2 W/m² | - |
| 1776944460 | 21.11° C | 99% | 1010.9 hPa | 0 mm | - | 1 W/m² | - |
| 1776944155 | 21.11° C | 99% | 1011.2 hPa | 0 mm | - | 0 W/m² | - |
| 1776943852 | 21.11° C | 99% | 1011.1 hPa | 0 mm | - | 0 W/m² | - |
| 1776943547 | 21.11° C | 99% | 1011.1 hPa | 0 mm | - | 0 W/m² | - |
| 1776943243 | 20.56° C | 99% | 1011 hPa | 0 mm | - | 0 W/m² | - |
| 1776942934 | 20.56° C | 99% | 1011.1 hPa | 0 mm | - | 0 W/m² | - |
| 1776942630 | 20.56° C | 99% | 1011.3 hPa | 0 mm | - | 0 W/m² | - |
| 1776942327 | 20.56° C | 99% | 1011.3 hPa | 0 mm | - | 0 W/m² | - |
| 1776942024 | 20.56° C | 99% | 1011.2 hPa | 0 mm | - | 0 W/m² | - |
| 1776941721 | 20.56° C | 99% | 1011 hPa | 0 mm | - | 0 W/m² | - |
* Rain latest hour (hover to see other rain measurements)
** Current wind speed in m/s (hover to see current wind gust speed)